Back to catalog

FENGYUN 1C DEB

AliveLEO
NORAD 31629·DEBRIS·🇨🇳 China

Launched May 10, 1999 from Taiyuan Satellite Launch Center

Loading…

Next Passes (next 24 hours)

TLE

FreshSource: Space-Track

Epoch: Sep 14, 2026, 04:56 UTC

1 31629U 99025CAK 26257.20559328  .00002736  00000-0  13237-2 0  9998
2 31629 102.1339  46.6475 0102046  53.9931 307.0639 14.17137693983456

Track FENGYUN 1C DEB in real time with AllMySat

Download on the App Store